Pagrindinis puslapis
METAR-TAF:

METAR-TAF

Oro uostai :

Alamogordo, Naujoji Meksika, Jungtinės Amerikos Valstijos

platuma: 32-50N, ilguma: 105-59W, Aukštis: 1279 m

Dabartinis oras

Ataskaita buvo paskelbta 29 minutes, ne 17:55 UTC
Vėjas 7 kt iš Pietvakarių
Temperatūra 27°C
Drėgmė 45%
Slėgis 1023 hPa
Matomumas: 14.5 km
Giedras dangus

METAR: KALM 031755Z AUTO 22007KT 9SM CLR 27/14 A3020 RMK AO2

Laikas: 12:24 (18:24 UTC)


TAF: trūkstamas

Orai ataskaitas ir orų prognozės (METAR, TAF).

turimą stotys yra geltonos ir raudonos taškus žemėlapyje.

Perkelti pele per norėdami pamatyti stoties vardą.

Tada spustelėkite, norėdami matyti oro stebėjimo ir prognozės.

Norėdami pakeisti žemėlapį: spustelėkite ant žalios mygtukų su juodo kryžiaus žemyn,; žalią mygtuką su brūkšneliu, jei norite nutolinti; arba žalių rodyklių gretimoms žemėlapius.


METAR-TAF: